721  
ASUS41 KPHI 302212  
RWRPHI  
 
REGIONAL WEATHER ROUNDUP  
NATIONAL WEATHER SERVICE MOUNT HOLLY NJ  
600 PM EDT MON MAR 30 2015  
 
NOTE: "FAIR" INDICATES FEW OR NO CLOUDS BELOW 12,000 FEET WITH NO  
SIGNIFICANT WEATHER AND/OR S TO VISIBILITY
.  
 
* = STATION DOES NOT REPORT PRECIPITATION (E.G. RAIN, SNOW, ETC.)  
OR FOG.
 
 
NJZ015>026-302300-  
SOUTHERN NEW JERSEY  
 
CITY SKY/WX TMP DP RH WIND PRES REMARKS
 
POMONA CLOUDY 56 28 34 W12G21 29.82R  
RIO GRANDE* CLOUDY N/A N/A N/A W7 29.84S  
MILLVILLE PTSUNNY 57 30 35 NW10 29.83R  
WRIGHTSTOWN CLOUDY 54 28 36 NW14 29.79R  
MOUNT HOLLY CLOUDY 53 27 36 W9G24 29.82R  
TRENTON PTSUNNY 53 24 32 NW13G21 29.80R  
 

 
NJZ001>014-302300-  
NORTHERN NEW JERSEY  
 
CITY SKY/WX TMP DP RH WIND PRES REMARKS
 
SUSSEX PTSUNNY 49 24 37 MISG 29.77S  
ANDOVER* N/A 49 22 34 MISG 29.77S  
MORRISTOWN PTSUNNY 52 23 32 NW18G30 29.79R  
NEWARK PTSUNNY 53 23 31 W23G32 29.78S  
TETERBORO PTSUNNY 51 27 39 W13G22 29.77S  
CALDWELL PTSUNNY 51 24 34 NW14G25 29.78S  
SOMERVILLE MOSUNNY 53 23 31 MISG 29.78R  
ALLAIRE* PTSUNNY 54 28 37 NW13 29.80R  
TOMS RIVER* PTSUNNY 54 27 35 W10G21 29.81R  
 

 
PAZ043-044-047-054-055-060>062-066>071-302300-  
EASTERN PENNSYLVANIA  
 
CITY SKY/WX TMP DP RH WIND PRES REMARKS
 
PHILADELPHIA MOSUNNY 56 22 26 NW18G30 29.83R  
NORTH PHILA MOSUNNY 56 22 26 W16G25 29.83R  
BLUE BELL MOSUNNY 54 27 35 W13G21 29.81R  
DOYLESTOWN MOSUNNY 50 24 36 W13G20 29.80R  
QUAKERTOWN* PTSUNNY 52 27 37 W10G20 29.81R  
POTTSTOWN MOSUNNY 53 25 33 W14G26 29.83R  
LANCASTER MOSUNNY 54 25 32 NW24G32 29.82R  
COATESVILLE MOSUNNY 52 25 35 NW20 29.82S  
READING MOSUNNY 54 22 28 W22G31 29.81R  
ALLENTOWN CLOUDY 53 25 33 W14G23 29.80R  
MOUNT POCONO CLOUDY 42 23 46 W26G35 29.75R  
HAZLETON CLOUDY 46 23 39 W18G26 29.80S  
WILKES BARRE PTSUNNY 50 23 34 W15G26 29.77R  
 

 
DEZALL-MDZ008-012-015-019-020-302300-  
DELAWARE AND EASTERN MARYLAND  
 
CITY SKY/WX TMP DP RH WIND PRES REMARKS
 
WILMINGTON MOSUNNY 57 23 26 NW15 29.84R  
DOVER MOSUNNY 57 28 32 W15 29.79S  
GEORGETOWN MOSUNNY 58 29 33 NW12G18 29.85R  
EASTON MOSUNNY 61 30 31 NW12 29.88S  
ABERDEEN PTSUNNY 57 28 33 W12 29.84S  
PATUXENT MOSUNNY 61 27 27 NW10 29.85R  
OCEAN CITY PTSUNNY 58 32 37 NW8G18 29.85S  
WALLOPS ISLAND SUNNY 58 39 49 W6 29.87R  
CAMBRIDGE SUNNY 61 27 27 NW9 29.85S  
SALISBURY MOSUNNY 58 30 34 W13 29.85R  
 

 
PAZ001-021-NYZ056-072-MDZ011-DCZ001-302300-  
OTHER NEARBY LOCATIONS  
 
CITY SKY/WX TMP DP RH WIND PRES REMARKS
 
HARRISBURG MOSUNNY 54 22 28 NW20G28 29.84R  
STATE COLLEGE MOSUNNY 48 19 32 W20G29 29.83F  
WILLIAMSPORT PTSUNNY 51 20 29 W17G32 29.79F  
BINGHAMTON CLOUDY 40 23 50 W8 29.74R WCI 34  
NEW YORK CITY CLOUDY 51 24 34 MISG 29.80S  
BALTIMORE MOSUNNY 59 21 23 W15G30 29.84R  
WASHINGTON DC MOSUNNY 65 23 20 NW12G31 29.86R  
 

 
 
CLICK HERE TO GO TO PREVIOUS BULLETINS.

The Nexlab PA Page
The Nexlab NJ Page
The Nexlab DE Page
The Nexlab MD Page Main Text Page